| time (UTC) | temp F | wind direction | speed MPH | gust MPH | rain 1hr in | rain 24hr in | rain mn in | humidity % | barometer mb |
| 20260905171531 | 86 | 342 | 1.0 | 4.0 | 0.00 | 0.00 | 0.00 | 32 | 1003.9 |
| 20260905170016 | 85 | 9 | 0.0 | 4.0 | 0.00 | 0.00 | 0.00 | 33 | 1003.9 |
| 20260905164520 | 83 | 9 | 1.0 | 3.0 | 0.00 | 0.00 | 0.00 | 35 | 1004.1 |
| 20260905163007 | 82 | 285 | 1.0 | 4.0 | 0.00 | 0.00 | 0.00 | 37 | 1004.4 |
| 20260905161503 | 80 | 28 | 0.0 | 2.0 | 0.00 | 0.00 | 0.00 | 40 | 1004.4 |
| 20260905160101 | 79 | 29 | 0.0 | 4.0 | 0.00 | 0.00 | 0.00 | 40 | 1004.6 |
| 20260905154606 | 77 | 218 | 1.0 | 5.0 | 0.00 | 0.00 | 0.00 | 44 | 1004.6 |
| 20260905153054 | 77 | 229 | 0.0 | 2.0 | 0.00 | 0.00 | 0.00 | 46 | 1004.7 |
| 20260905151551 | 76 | 227 | 0.0 | 3.0 | 0.00 | 0.00 | 0.00 | 49 | 1004.6 |
| 20260905150048 | 73 | 42 | 0.0 | 2.0 | 0.00 | 0.00 | 0.00 | 56 | 1004.7 |
| 20260905144547 | 71 | 42 | 0.0 | 2.0 | 0.00 | 0.00 | 0.00 | 64 | 1004.7 |
| 20260905143046 | 70 | 42 | 0.0 | 2.0 | 0.00 | 0.00 | 0.00 | 67 | 1004.8 |
| 20260905141546 | 68 | 42 | 0.0 | 2.0 | 0.00 | 0.00 | 0.00 | 70 | 1004.7 |
| 20260905140046 | 66 | 42 | 0.0 | 2.0 | 0.00 | 0.00 | 0.00 | 73 | 1004.9 |
| 20260905134547 | 65 | 42 | 0.0 | 0.0 | 0.00 | 0.00 | 0.00 | 75 | 1005.0 |
| 20260905133044 | 65 | 42 | 0.0 | 0.0 | 0.00 | 0.00 | 0.00 | 76 | 1005.0 |
| 20260905131542 | 64 | 42 | 0.0 | 3.0 | 0.00 | 0.00 | 0.00 | 77 | 1004.8 |
| 20260905130040 | 64 | 43 | 0.0 | 4.0 | 0.00 | 0.00 | 0.00 | 77 | 1004.5 |
| 20260905124539 | 64 | 44 | 0.0 | 3.0 | 0.00 | 0.00 | 0.00 | 77 | 1004.3 |
| 20260905123037 | 64 | 44 | 0.0 | 3.0 | 0.00 | 0.00 | 0.00 | 78 | 1004.2 |
| 20260905121537 | 64 | 44 | 0.0 | 3.0 | 0.00 | 0.00 | 0.00 | 77 | 1004.1 |
| 20260905120037 | 64 | 44 | 0.0 | 3.0 | 0.00 | 0.00 | 0.00 | 77 | 1003.9 |
| 20260905114537 | 64 | 44 | 0.0 | 2.0 | 0.00 | 0.00 | 0.00 | 78 | 1004.1 |
| 20260905113037 | 64 | 44 | 0.0 | 1.0 | 0.00 | 0.00 | 0.00 | 79 | 1004.2 |
| 20260905111535 | 64 | 44 | 0.0 | 3.0 | 0.00 | 0.00 | 0.00 | 77 | 1004.1 |
| 20260905110035 | 65 | 45 | 0.0 | 2.0 | 0.00 | 0.00 | 0.00 | 76 | 1004.2 |
| 20260905104532 | 65 | 44 | 0.0 | 4.0 | 0.00 | 0.00 | 0.00 | 76 | 1004.1 |
| 20260905103039 | 65 | 46 | 0.0 | 3.0 | 0.00 | 0.00 | 0.00 | 74 | 1004.0 |
| 20260905094521 | 66 | 30 | 0.0 | 3.0 | 0.00 | 0.00 | 0.00 | 70 | 1004.1 |
| 20260905093018 | 66 | 31 | 2.0 | 4.0 | 0.00 | 0.00 | 0.00 | 67 | 1003.9 |
| 20260905091514 | 67 | 65 | 0.0 | 5.0 | 0.00 | 0.00 | 0.00 | 66 | 1003.9 |
| 20260905090011 | 68 | 71 | 0.0 | 3.0 | 0.00 | 0.00 | 0.00 | 66 | 1003.8 |
| 20260905084507 | 69 | 73 | 0.0 | 3.0 | 0.00 | 0.00 | 0.00 | 66 | 1003.7 |
| 20260905083010 | 70 | 82 | 0.0 | 3.0 | 0.00 | 0.00 | 0.00 | 66 | 1003.9 |
| 20260905081503 | 70 | 84 | 0.0 | 2.0 | 0.00 | 0.00 | 0.00 | 64 | 1003.8 |
| 20260905080101 | 71 | 84 | 0.0 | 0.0 | 0.00 | 0.00 | 0.00 | 61 | 1003.6 |
| 20260905074558 | 72 | 83 | 0.0 | 1.0 | 0.00 | 0.00 | 0.00 | 59 | 1003.6 |
| 20260905073056 | 73 | 84 | 0.0 | 1.0 | 0.00 | 0.00 | 0.00 | 56 | 1003.5 |
| 20260905071553 | 73 | 84 | 0.0 | 3.0 | 0.00 | 0.00 | 0.00 | 58 | 1003.5 |
| 20260905070052 | 74 | 91 | 0.0 | 1.0 | 0.00 | 0.00 | 0.00 | 54 | 1003.4 |
| 20260905064553 | 73 | 90 | 0.0 | 2.0 | 0.00 | 0.00 | 0.00 | 54 | 1003.2 |
| 20260905063050 | 73 | 128 | 0.0 | 1.0 | 0.00 | 0.00 | 0.00 | 54 | 1003.1 |
| 20260905061558 | 73 | 130 | 0.0 | 1.0 | 0.00 | 0.00 | 0.00 | 53 | 1003.1 |
| 20260905060048 | 74 | 130 | 0.0 | 0.0 | 0.00 | 0.00 | 0.00 | 51 | 1003.1 |
| 20260905054544 | 75 | 130 | 0.0 | 0.0 | 0.00 | 0.00 | 0.00 | 50 | 1002.9 |
| 20260905053044 | 76 | 130 | 0.0 | 0.0 | 0.00 | 0.00 | 0.00 | 48 | 1002.9 |
| 20260905051543 | 77 | 130 | 0.0 | 1.0 | 0.00 | 0.00 | 0.00 | 46 | 1003.0 |
| 20260905050043 | 78 | 131 | 0.0 | 1.0 | 0.00 | 0.00 | 0.00 | 44 | 1003.0 |
| 20260905044545 | 79 | 132 | 0.0 | 2.0 | 0.00 | 0.00 | 0.00 | 43 | 1002.6 |
| 20260905043051 | 78 | 132 | 0.0 | 1.0 | 0.00 | 0.00 | 0.00 | 43 | 1002.4 |
| 20260905041540 | 78 | 134 | 0.0 | 0.0 | 0.00 | 0.00 | 0.00 | 44 | 1002.6 |
| 20260905040044 | 77 | 135 | 0.0 | 1.0 | 0.00 | 0.00 | 0.00 | 44 | 1002.7 |
| 20260905034540 | 77 | 136 | 0.0 | 0.0 | 0.00 | 0.00 | 0.00 | 45 | 1002.9 |
| 20260905033040 | 78 | 136 | 0.0 | 0.0 | 0.00 | 0.00 | 0.00 | 45 | 1002.8 |
| 20260905031545 | 78 | 136 | 0.0 | 0.0 | 0.00 | 0.00 | 0.00 | 43 | 1002.8 |
| 20260905030038 | 79 | 74 | 0.0 | 0.0 | 0.00 | 0.00 | 0.00 | 39 | 1002.8 |
| 20260905024539 | 80 | 74 | 0.0 | 0.0 | 0.00 | 0.00 | 0.00 | 39 | 1002.4 |
| 20260905023038 | 81 | 74 | 0.0 | 0.0 | 0.00 | 0.00 | 0.00 | 37 | 1002.1 |
| 20260905021538 | 82 | 74 | 0.0 | 0.0 | 0.00 | 0.00 | 0.00 | 37 | 1001.8 |
| 20260905020046 | 84 | 74 | 0.0 | 0.0 | 0.00 | 0.00 | 0.00 | 34 | 1001.4 |
| 20260905014536 | 86 | 74 | 0.0 | 1.0 | 0.00 | 0.00 | 0.00 | 32 | 1001.3 |
| 20260905013046 | 88 | 74 | 0.0 | 1.0 | 0.00 | 0.00 | 0.00 | 30 | 1001.1 |
| 20260905011603 | 90 | 74 | 0.0 | 0.0 | 0.00 | 0.00 | 0.00 | 28 | 1001.0 |
| 20260905010034 | 92 | 74 | 0.0 | 1.0 | 0.00 | 0.00 | 0.00 | 29 | 1000.7 |
| 20260905004534 | 94 | 74 | 0.0 | 1.0 | 0.00 | 0.00 | 0.00 | 29 | 1000.5 |
| 20260905003036 | 95 | 74 | 0.0 | 1.0 | 0.00 | 0.00 | 0.00 | 28 | 1000.6 |
| 20260905001532 | 96 | 74 | 0.0 | 1.0 | 0.00 | 0.00 | 0.00 | 27 | 1000.6 |
| 20260905000031 | 97 | 74 | 0.0 | 1.0 | 0.00 | 0.00 | 0.00 | 25 | 1000.6 |
| 20260904234530 | 98 | 74 | 0.0 | 1.0 | 0.00 | 0.00 | 0.00 | 24 | 1000.7 |
| 20260904233030 | 99 | 74 | 0.0 | 1.0 | 0.00 | 0.00 | 0.00 | 24 | 1000.6 |
| 20260904231529 | 99 | 74 | 0.0 | 2.0 | 0.00 | 0.00 | 0.00 | 24 | 1000.5 |
| 20260904230029 | 98 | 82 | 0.0 | 3.0 | 0.00 | 0.00 | 0.00 | 25 | 1000.4 |
| 20260904224527 | 99 | 112 | 0.0 | 2.0 | 0.00 | 0.00 | 0.00 | 22 | 1000.5 |
| 20260904223028 | 99 | 115 | 0.0 | 1.0 | 0.00 | 0.00 | 0.00 | 23 | 1000.6 |
| 20260904221527 | 99 | 176 | 0.0 | 2.0 | 0.00 | 0.00 | 0.00 | 23 | 1000.6 |
| 20260904220026 | 98 | 182 | 0.0 | 1.0 | 0.00 | 0.00 | 0.00 | 23 | 1000.8 |
| 20260904214525 | 99 | 182 | 0.0 | 1.0 | 0.00 | 0.00 | 0.00 | 23 | 1000.9 |
| 20260904213024 | 100 | 182 | 0.0 | 1.0 | 0.00 | 0.00 | 0.00 | 21 | 1001.1 |
| 20260904211521 | 99 | 184 | 0.0 | 2.0 | 0.00 | 0.00 | 0.00 | 24 | 1001.1 |
| 20260904210026 | 98 | 185 | 1.0 | 3.0 | 0.00 | 0.00 | 0.00 | 21 | 1001.5 |
| 20260904204516 | 97 | 173 | 0.0 | 1.0 | 0.00 | 0.00 | 0.00 | 24 | 1001.6 |
| 20260904203018 | 96 | 33 | 0.0 | 3.0 | 0.00 | 0.00 | 0.00 | 26 | 1002.0 |
| 20260904201513 | 96 | 20 | 0.0 | 2.0 | 0.00 | 0.00 | 0.00 | 21 | 1002.0 |
| 20260904200014 | 96 | 19 | 0.0 | 3.0 | 0.00 | 0.00 | 0.00 | 24 | 1002.3 |
| 20260904194508 | 95 | 15 | 0.0 | 3.0 | 0.00 | 0.00 | 0.00 | 26 | 1002.4 |
| 20260904193008 | 95 | 13 | 0.0 | 1.0 | 0.00 | 0.00 | 0.00 | 26 | 1002.6 |
| 20260904191505 | 94 | 13 | 0.0 | 1.0 | 0.00 | 0.00 | 0.00 | 26 | 1002.7 |
| 20260904190004 | 94 | 13 | 0.0 | 2.0 | 0.00 | 0.00 | 0.00 | 25 | 1003.0 |
| 20260904184559 | 93 | 13 | 0.0 | 1.0 | 0.00 | 0.00 | 0.00 | 28 | 1003.3 |
| 20260904183112 | 92 | 14 | 0.0 | 1.0 | 0.00 | 0.00 | 0.00 | 25 | 1003.5 |
| 20260904181606 | 92 | 18 | 0.0 | 1.0 | 0.00 | 0.00 | 0.00 | 25 | 1003.7 |
| 20260904180050 | 90 | 19 | 0.0 | 1.0 | 0.00 | 0.00 | 0.00 | 29 | 1004.0 |
| 20260904174545 | 88 | 18 | 0.0 | 3.0 | 0.00 | 0.00 | 0.00 | 29 | 1004.0 |
| 20260904173041 | 86 | 18 | 0.0 | 1.0 | 0.00 | 0.00 | 0.00 | 29 | 1004.1 |